Simultaneous Nadir Overpasses (SNOs) Predictions

Prediction of SNOs between NOAA-19 and TERRA Satellite Orbit:

Table of predicted SNOs for the next 14.0 days since TLE Epoch: 12/14/2012
Index Date (NOAA-19) Time (NOAA-19) Lat,Lon (NOAA-19) SZA (NOAA-19 ) Date (TERRA) Time (TERRA) Lat,Lon (TERRA) SZA (TERRA ) Distance(km) Time Diff (sec)
1 12/16/2012 04:59:46 69.17, 104.59 92.39 12/16/2012 04:59:58 69.14, 104.62 92.36 3.06 12
2 12/16/2012 05:50:42 -69.02, -87.93 87.77 12/16/2012 05:49:28 -69.03, -87.89 87.76 2.22 74
3 12/18/2012 08:53:28 -70.10,-135.14 86.61 12/18/2012 08:54:35 -69.97,-132.98 86.74 83.14 67
4 12/18/2012 09:44:16 69.13, 33.53 92.42 12/18/2012 09:44:15 69.14, 33.55 92.43 1.92 1
5 12/18/2012 10:35:04 -68.58,-158.45 88.14 12/18/2012 10:33:53 -68.59,-159.52 88.13 43.39 71
6 12/20/2012 13:37:49 -69.61, 154.49 87.07 12/20/2012 13:39:00 -69.52, 155.34 87.16 34.41 71
7 12/20/2012 14:28:46 69.09, -37.53 92.41 12/20/2012 14:28:33 69.08, -37.60 92.40 2.68 13
8 12/20/2012 15:19:25 -68.08, 131.09 88.60 12/20/2012 15:18:18 -68.14, 128.87 88.54 91.98 67
9 12/22/2012 18:22:12 -69.22, 83.94 87.46 12/22/2012 18:23:22 -69.24, 83.89 87.45 2.27 70
10 12/22/2012 19:13:17 69.10,-108.67 92.42 12/22/2012 19:12:50 69.07,-108.68 92.39 3.33 27
11 12/24/2012 23:06:42 -69.21, 12.85 87.52 12/24/2012 23:07:39 -69.22, 12.80 87.51 2.47 57
12 12/24/2012 23:57:47 69.06,-179.73 92.34 12/24/2012 23:57:07 69.05,-179.77 92.33 1.94 40
13 12/27/2012 03:51:12 -69.18, -58.24 87.62 12/27/2012 03:51:56 -69.20, -58.30 87.61 2.64 44
14 12/27/2012 04:42:18 69.07, 109.13 92.27 12/27/2012 04:41:23 69.08, 109.20 92.28 2.81 55




NCC Satellite Simultaneous Nadir Overpasses (SNOs) Prediction Service
